sat.trackr.live / text

‹ back to catalog

CARTOSAT-2B

NORAD 36795 · 2010-035A

PAYLOAD ACTIVE UNKNOWN

§ Identity

Operator
Country
IND
Launch date
2010-07-12
Launch site
SRILR
Launch vehicle
Mass (kg)
RCS (m²)
2.25

Purposes: earth_obs

External: N2YO · Heavens-Above · Gunter

§ Orbital elements

Epoch: 2026-05-25T04:42:45.165312Z

Period
97.39 min
Inclination
97.9967°
Eccentricity
0.0010019
Mean motion
14.78626699 rev/d
Perigee alt
626.6 km
Apogee alt
640.7 km
Semi-major
7,011.8 km
B*
4.9620e-5
RAAN
195.8913°
Arg perigee
265.1003°
Mean anomaly
94.9064°
Rev number
85,645

§ Raw data

CARTOSAT-2B1 36795U 10035A   26145.19635608  .00000311  00000+0  49620-4 0  99942 36795  97.9967 195.8913 0010019 265.1003  94.9064 14.78626699856451

JSON: /api/v1/satellites/36795 · /tle

For live sub-satellite position, see the globe view (requires WebGL).

§ Visibility from observer

Set your observer location to see the next 7 days of passes ≥ 10°. The values pass through the URL so the page stays shareable.

No JS? Fill the form by hand. The geolocation button needs JavaScript.

§ Radio — SatNOGS DB

ModeDescriptionDownlinkUplink
CW Beacon 2.246 GHz

1 transmitter · refreshed weekly from db.satnogs.org